Weather Roundup
Issued by NWS Chicago, IL

Home | Current Version | Previous Version | Graphics & Text | Print | Product List | Glossary On
Versions: 1 2 3 4 5 6 7 8 9 10 11 12 13 14 15 16 17 18 19 20 21 22 23 24 25 26 27 28 29 30 31 32 33 34 35 36 37 38 39 40 41 42 43 44 45 46 47 48 49 50
000
NZUS59 KLOT 252208
HRRLOT

CHICAGO AREA WEATHER ROUNDUP
NATIONAL WEATHER SERVICE CHICAGO/ROMEOVILLE IL
500 PM CDT SUN SEP 25 2016

NOTE: "FAIR" INDICATES FEW OR NO CLOUDS BELOW 12,000 FEET WITH NO
SIGNIFICANT WEATHER AND/OR OBSTRUCTIONS TO VISIBILITY.

* THESE STATIONS ARE NOT UNDER NWS QUALITY CONTROL. THEY ALSO MAY NOT
  REPORT WEATHER SUCH AS PRECIPITATION OR FOG.

ILZ005-006-012>014-019>023-252300-
NORTHEAST ILLINOIS

CITY           SKY/WX    TMP DP  RH WIND       PRES   REMARKS
OHARE          PTSUNNY   84  67  56 S14       29.88F HX  86
MIDWAY         CLOUDY    85  67  54 S10       29.89F HX  87
AURORA         PTSUNNY   86  66  51 SW14      29.88F HX  88
LANSING*       MOSUNNY   81  70  69 S7        29.92F HX  84
JOLIET*        PTSUNNY   81  72  74 S6        29.90F HX  85
WAUKEGAN       PTSUNNY   74  65  73 SE14G20   29.86F
DUPAGE AIRPORT PTSUNNY   82  67  60 S17       29.87F HX  84
WHEELING       SUNNY     83  66  56 S16       29.88F HX  85
KANKAKEE*      PTSUNNY   77  73  87 CALM      29.93F
MORRIS*        CLOUDY    83  67  56 S7        29.89F HX  86
LEWIS AIRPORT* MOSUNNY   80  71  74 S7        29.90F HX  84
NORTHERLY ISL    N/A     75  66  73 CALM        N/A
$$

WIZ051-052-058>065-066-070>072-252300-
SOUTHEAST WISCONSIN

CITY           SKY/WX    TMP DP  RH WIND       PRES   REMARKS
MILWAUKEE      TSTM      74  66  76 N6        29.91R
KENOSHA*       CLOUDY    73  69  87 S5        29.91R THUNDER
RACINE*        LGT RAIN  72  65  78 SW8       29.92R
BURLINGTON     PTSUNNY   73  70  91 CALM      29.89F
WAUKESHA       PTSUNNY   70  68  94 SW12      29.91F
WEST BEND      CLOUDY    68  64  88 SE7       29.88F
$$

INZ001>003-010>013-019-020-252300-
NORTHWEST INDIANA

CITY           SKY/WX    TMP DP  RH WIND       PRES   REMARKS
GARY*          PTSUNNY   84  68  58 S7        29.92F HX  87
MICHIGAN CITY* NOT AVBL
RENSSELAER*    NOT AVBL
VALPARAISO     TSTM      75  68  78 VRB3      29.95S
$$

LMZ740>746-252300-
SOUTHERN LAKE MICHIGAN

STATION/POSITION TIME  SKY/WX   TEMP WIND        PRES    VSBY
                                AIR  DIR/SP/G
                 (UTC)          (F)  (DEG/KT/KT) (MB)    (MI)
HARRISON CRIB    2100            76  140/ 11/ 13   N/A
BURNHAM HARBOR   2200            75   CALM  /  4   N/A
CALUMET HARBOR   2100            84  220/  3/  9 1012.6F
BURNS HARBOR     2101            85  170/  8/ 14 1013.9F
MICHIGAN CITY    2100            83  110/  7/  9   N/A
$$

ABBREVIATIONS USED IN REMARKS
   TC - TEMPERATURE IN CELSIUS
  WCI - WIND CHILL INDEX
   HX - HEAT INDEX
  VSB - VISIBILITY
$$



USA.gov is the U.S. government's official web portal to all federal, state and local government web resources and services.